Wind_Speed
7 6 6 5 4 3 3 3 5 5 6 7 8 8 9 9 10 11 12 6 6 6 5 5 7 8 12 4 2 5 2 2 4 4 3 14 5 4 4 8 10 10 6 14 28
7 7 6 6 5 4 4 3 4 5 5 6 7 8 9 9 11 15 8 9 8 9 6 7 11 13 9 4 4 5 3 7 6 5 4 3 7 13 6 4 1 10 9 25 30
9 7 7 6 5 5 4 4 4 4 5 5 6 7 7 7 9 8 5 11 10 10 8 8 10 11 6 8 4 3 5 5 7 11 8 7 9 9 12 3 8 23 30 34 32
9 8 7 6 6 5 5 5 5 5 5 5 6 6 6 4 4 2 5 10 12 10 9 7 6 4 4 5 10 4 7 8 6 13 6 8 8 6 12 3 14 16 34 38 36
10 9 8 7 7 6 6 6 6 6 5 6 6 6 5 6 11 5 6 6 12 13 11 8 8 1 2 9 17 1 7 10 13 14 14 11 10 5 9 6 19 23 32 34 34
9 9 9 8 8 7 7 6 7 7 6 6 6 6 6 5 5 11 5 2 11 13 12 10 4 7 9 8 3 9 9 9 14 13 8 9 3 8 4 15 24 26 25 30 35
10 9 9 9 8 8 7 7 7 7 7 6 6 7 11 13 4 11 7 1 6 11 12 9 8 7 14 7 9 7 4 5 6 8 5 7 1 6 9 21 26 26 25 27 32
12 10 9 9 9 8 8 7 8 7 7 6 7 8 9 3 12 14 10 4 4 8 10 7 7 13 6 10 9 6 3 4 4 11 5 9 7 5 13 20 16 23 27 23 24
13 12 11 10 9 7 7 7 7 7 7 7 7 7 8 8 16 14 10 7 3 4 8 8 9 5 7 3 5 6 3 4 7 10 6 5 4 4 20 22 20 14 17 23 27
14 12 12 11 9 7 7 5 5 6 7 7 10 6 2 1 11 13 13 9 7 4 7 5 0 2 4 5 3 2 6 7 6 5 5 7 3 5 19 23 28 28 25 23 28
15 14 13 11 10 7 6 4 3 4 11 9 2 5 11 7 1 8 16 12 9 6 3 3 3 7 10 7 7 5 4 8 15 12 4 5 5 9 20 22 15 20 20 18 29
17 14 12 10 9 7 7 5 3 1 8 13 20 22 19 16 6 9 15 9 7 7 4 4 6 12 7 4 6 6 7 13 9 5 7 6 10 9 12 18 18 3 16 23 26
18 14 10 8 7 7 7 3 5 6 3 6 11 13 12 9 7 15 14 13 5 5 5 7 11 4 3 4 4 6 5 7 8 2 3 3 7 5 8 17 20 14 11 17 27
18 13 7 5 4 3 6 4 6 6 4 5 4 5 11 7 4 18 20 12 2 9 7 6 11 7 7 7 2 10 7 12 3 3 3 2 6 6 4 8 10 13 21 20 17
16 9 5 7 5 6 4 6 9 2 2 2 4 1 9 12 3 13 25 17 7 5 6 9 3 4 4 9 5 11 5 2 4 3 2 1 2 7 3 6 10 14 17 22 31
11 4 2 8 9 4 5 9 5 5 2 3 3 5 5 6 1 5 19 11 3 4 3 9 6 5 8 6 7 8 5 7 3 3 4 3 3 6 3 6 4 6 21 30 31
8 3 2 8 8 5 6 8 5 3 4 3 5 4 5 5 3 6 7 7 7 2 4 5 7 5 6 4 3 6 6 3 4 5 6 5 2 10 5 7 8 8 10 24 27
7 6 3 10 9 8 5 5 2 2 6 4 3 5 3 2 3 2 6 5 5 3 3 1 8 3 4 8 8 6 8 6 4 3 7 4 5 6 1 9 3 8 10 14 25
6 6 4 9 10 8 4 3 5 5 4 5 3 5 2 4 5 5 5 4 5 8 7 4 8 3 5 4 8 4 3 6 6 3 3 3 7 10 12 11 16 14 9 15 19
4 4 4 11 8 5 4 4 4 5 5 3 4 2 2 4 2 5 6 5 10 15 9 5 6 3 3 1 1 5 5 4 3 1 3 5 5 5 19 11 8 12 16 7 20
3 3 4 9 8 1 2 5 6 14 3 0 2 3 1 1 3 2 3 3 6 4 13 6 6 8 1 0 4 3 1 6 5 4 5 2 6 4 10 9 5 9 11 3 14
3 3 6 10 3 2 1 5 6 9 6 2 4 3 3 1 2 3 2 2 20 5 6 7 6 3 5 7 3 3 4 5 5 3 2 3 5 5 6 6 7 11 11 10 8
4 4 10 7 2 3 6 6 3 8 7 6 6 6 3 4 3 4 5 5 15 10 4 2 2 2 8 7 5 6 2 5 5 3 3 4 5 5 9 6 3 1 4 7 7
3 3 2 6 2 2 4 5 6 9 6 6 3 4 5 7 5 3 7 3 15 9 14 2 3 6 7 6 3 2 2 4 5 3 4 5 4 7 7 7 7 9 9 6 4
5 2 3 3 4 5 2 5 5 7 8 19 5 6 2 4 5 3 3 7 8 9 8 5 2 3 3 4 3 5 5 6 6 5 6 6 8 9 9 9 14 15 17 11 6
5 5 4 3 8 4 5 6 6 6 4 4 3 5 3 3 4 3 2 1 6 6 5 5 2 4 4 2 4 1 5 5 5 4 3 1 7 9 19 17 23 25 17 12 11
9 6 3 5 5 3 1 5 4 8 3 5 4 1 5 3 7 12 15 14 12 4 1 1 2 3 5 5 6 4 5 4 3 5 0 5 5 6 6 11 13 16 20 19 13
Wind_Direction
6 0 356 348 345 330 309 292 283 281 278 280 282 283 280 279 278 274 257 242 234 272 302 319 331 332 322 300 271 207 66 256 226 177 255 162 173 180 154 170 203 199 205 180 171
360 356 347 343 338 327 316 301 287 284 281 281 282 280 280 283 280 266 254 242 233 257 286 316 327 333 326 285 253 168 149 224 196 186 220 173 174 163 163 194 283 181 175 168 172
357 351 345 338 328 318 310 303 296 294 297 296 289 283 284 287 293 275 230 218 220 240 257 301 322 324 326 315 270 213 196 203 206 203 225 176 157 171 154 229 180 159 156 171 177
353 349 341 332 324 311 301 291 288 294 303 306 298 290 282 266 217 118 189 207 200 218 245 284 309 346 319 305 319 265 217 180 194 204 206 168 162 182 184 232 186 175 170 174 182
345 342 336 330 322 309 294 283 278 282 291 300 297 293 281 248 234 185 96 163 193 214 235 261 295 315 312 301 320 284 357 215 195 194 205 166 189 194 215 236 168 163 172 180 187
331 329 328 323 317 313 301 286 277 274 279 288 287 286 269 255 245 209 162 202 214 223 233 249 266 314 301 273 282 314 307 274 202 195 181 170 205 162 182 169 161 163 172 186 194
329 318 314 312 312 309 301 287 277 274 278 285 283 286 269 244 186 176 178 143 210 227 236 258 291 307 314 298 317 288 320 287 189 190 213 168 172 216 163 173 171 184 190 195 204
334 321 306 300 302 305 300 285 273 270 270 278 282 288 258 206 195 182 179 184 172 211 246 270 293 305 276 306 336 353 36 358 286 173 237 165 273 223 165 176 190 202 200 202 199
334 326 314 300 296 298 297 285 270 265 265 267 277 283 270 218 205 185 194 183 183 203 244 272 298 307 308 31 2 356 276 319 325 219 146 173 266 72 158 170 183 210 229 223 237
334 326 315 302 290 286 290 283 263 259 256 261 259 292 266 296 230 208 200 214 228 257 254 265 143 28 32 63 254 301 321 300 261 261 184 189 195 170 179 198 208 192 201 242 224
330 323 315 301 286 274 274 270 234 251 231 219 199 255 310 15 84 180 203 209 231 244 185 12 41 253 250 206 226 264 256 259 280 274 83 244 223 204 208 225 243 210 219 219 217
329 321 313 299 282 263 250 227 224 128 292 260 252 259 260 266 304 185 194 181 164 205 109 12 251 242 233 242 226 226 267 291 285 209 162 204 228 194 200 222 243 244 201 214 210
328 321 314 296 272 258 257 254 245 261 304 282 238 239 234 214 212 206 198 200 162 181 181 176 245 29 202 246 232 249 218 251 209 204 50 78 304 248 247 241 248 239 216 222 210
324 320 308 281 256 163 113 2 211 194 51 272 223 229 191 193 229 211 205 187 173 206 156 231 286 258 292 288 264 290 204 248 215 95 230 131 280 275 254 250 238 212 220 225 214
325 317 281 207 166 125 40 31 130 153 76 157 192 132 174 169 139 204 206 197 188 189 120 239 226 277 240 236 146 241 191 88 31 122 15 252 68 268 349 275 250 244 211 224 218
340 334 211 189 179 145 62 125 123 44 26 346 145 165 136 203 261 128 193 213 244 179 241 250 266 206 219 255 180 145 74 37 59 59 355 269 155 280 234 217 248 227 217 222 221
3 2 157 169 168 163 118 145 45 108 338 190 205 151 187 188 212 152 170 188 200 148 282 300 250 247 192 250 120 94 69 339 346 7 232 350 298 247 263 263 251 262 248 217 226
27 34 134 151 174 163 160 51 81 260 267 292 147 76 144 134 272 232 134 195 247 88 77 264 327 210 146 200 204 182 150 152 207 228 276 24 242 264 127 317 353 299 254 211 214
5 23 93 168 163 164 137 82 213 211 258 312 58 92 271 244 185 175 196 242 215 166 183 164 271 270 265 276 144 202 182 185 123 32 32 263 285 316 22 357 347 2 209 216 210
3 35 90 183 169 140 76 248 246 222 325 21 72 127 144 311 325 172 189 211 230 193 173 226 296 224 289 337 29 154 155 70 18 173 295 285 296 263 326 313 318 353 341 267 229
9 78 56 138 152 100 150 243 277 293 293 248 168 85 342 274 261 216 212 289 341 332 161 156 158 285 185 159 247 41 78 70 114 125 167 245 275 269 286 263 321 342 334 314 212
55 58 131 162 36 31 219 207 299 311 16 353 102 126 175 242 322 63 47 27 345 242 180 197 155 229 243 301 279 123 114 120 121 224 124 157 275 232 250 272 35 345 1 338 207
64 83 175 185 71 320 305 291 300 349 359 3 26 41 10 7 354 51 341 307 3 32 13 188 313 26 339 352 351 81 80 102 102 80 189 149 258 208 253 273 347 290 79 47 227
34 60 102 209 86 59 332 307 351 18 66 53 20 80 47 22 8 3 345 311 342 16 14 151 148 171 198 206 166 160 198 143 128 125 184 224 254 281 232 253 248 228 195 113 166
47 63 41 330 348 347 290 329 357 2 11 31 32 43 7 20 347 5 340 324 326 14 21 70 38 316 271 260 257 230 210 187 189 187 159 226 206 248 244 255 250 250 198 217 237
49 21 3 345 318 345 4 354 15 328 46 357 29 320 55 153 180 288 352 259 253 338 28 357 314 5 322 160 42 298 278 270 198 146 272 190 253 228 244 255 277 260 251 233 218
40 20 360 1 350 57 337 298 337 338 292 25 242 230 322 230 240 260 251 243 232 216 243 260 128 52 283 339 4 341 239 209 158 55 147 191 263 308 339 306 292 261 251 264 245
Height
1525 1524 1523 1522 1521 1520 1520 1519 1519 1518 1518 1518 1518 1518 1518 1518 1517 1517 1516 1518 1517 1516 1517 1518 1519 1520 1519 1518 1519 1519 1528 1533 1523 1524 1514 1513 1513 1515 1514 1515 1516 1516 1515 1517 1523
1525 1524 1522 1521 1520 1520 1519 1518 1518 1517 1517 1517 1517 1516 1516 1516 1516 1514 1516 1516 1516 1516 1517 1517 1517 1517 1517 1517 1517 1516 1527 1521 1511 1511 1511 1510 1511 1513 1515 1514 1514 1516 1517 1518 1522
1524 1523 1522 1521 1520 1519 1518 1517 1517 1517 1516 1516 1516 1515 1515 1515 1515 1511 1512 1513 1515 1515 1516 1517 1517 1517 1517 1516 1513 1512 1517 1509 1508 1507 1507 1508 1510 1511 1512 1514 1511 1511 1515 1520 1524
1524 1522 1521 1520 1519 1518 1517 1516 1516 1515 1515 1515 1515 1514 1514 1515 1518 1510 1510 1512 1514 1515 1516 1517 1518 1518 1519 1516 1512 1512 1506 1505 1504 1506 1506 1507 1508 1509 1509 1509 1509 1511 1512 1518 1523
1523 1521 1520 1518 1517 1517 1516 1515 1515 1514 1514 1514 1513 1513 1513 1513 1509 1510 1510 1511 1513 1514 1515 1516 1517 1519 1520 1515 1511 1507 1506 1502 1500 1501 1502 1505 1506 1507 1508 1509 1511 1514 1517 1520 1523
1522 1521 1519 1517 1516 1515 1514 1514 1513 1513 1513 1513 1512 1512 1512 1512 1507 1508 1509 1511 1512 1512 1514 1515 1517 1518 1517 1515 1513 1507 1505 1502 1502 1501 1503 1505 1506 1507 1508 1509 1512 1515 1519 1520 1521
1521 1519 1517 1516 1514 1513 1513 1512 1511 1511 1511 1511 1511 1510 1509 1504 1504 1506 1508 1509 1510 1511 1513 1515 1517 1518 1516 1513 1509 1506 1505 1500 1501 1502 1503 1504 1509 1506 1507 1511 1513 1515 1518 1521 1522
1519 1517 1516 1514 1513 1512 1511 1510 1510 1509 1510 1510 1509 1509 1504 1501 1503 1505 1507 1509 1509 1510 1512 1515 1516 1516 1514 1511 1508 1507 1507 1517 1501 1499 1500 1504 1514 1503 1505 1512 1515 1515 1516 1518 1520
1517 1515 1513 1512 1511 1510 1509 1509 1508 1508 1508 1509 1509 1509 1501 1501 1502 1505 1507 1509 1510 1511 1512 1514 1515 1514 1513 1516 1522 1519 1527 1519 1510 1500 1498 1503 1507 1507 1505 1505 1505 1512 1515 1514 1515
1515 1513 1511 1509 1508 1508 1508 1507 1507 1507 1508 1508 1508 1510 1501 1501 1501 1503 1506 1508 1510 1511 1512 1513 1513 1517 1520 1526 1543 1529 1529 1519 1519 1501 1500 1502 1504 1505 1501 1499 1493 1494 1499 1506 1506
1512 1510 1508 1506 1505 1506 1506 1506 1509 1508 1505 1501 1501 1499 1499 1500 1500 1502 1505 1507 1510 1512 1514 1513 1520 1529 1520 1518 1516 1519 1523 1524 1504 1496 1502 1504 1503 1501 1496 1495 1491 1489 1494 1498 1499
1509 1506 1505 1503 1503 1503 1504 1504 1504 1505 1501 1496 1496 1497 1497 1500 1501 1501 1504 1508 1508 1513 1513 1519 1526 1509 1509 1510 1514 1518 1522 1517 1502 1491 1492 1498 1495 1490 1491 1486 1488 1493 1492 1494 1500
1505 1503 1501 1501 1500 1501 1501 1502 1503 1503 1502 1493 1492 1493 1495 1498 1499 1499 1502 1504 1506 1511 1513 1522 1508 1504 1508 1510 1515 1513 1519 1510 1502 1493 1495 1499 1505 1497 1490 1488 1487 1492 1493 1494 1496
1501 1499 1499 1498 1501 1499 1501 1500 1500 1502 1513 1496 1490 1490 1493 1495 1497 1497 1499 1502 1504 1509 1513 1514 1501 1504 1507 1510 1506 1521 1497 1496 1492 1504 1522 1502 1531 1498 1488 1487 1485 1485 1487 1490 1494
1497 1496 1496 1497 1498 1499 1502 1499 1501 1503 1528 1489 1489 1487 1488 1493 1493 1493 1497 1499 1502 1504 1508 1510 1502 1504 1508 1504 1499 1504 1491 1494 1499 1507 1511 1509 1522 1498 1488 1486 1478 1475 1482 1483 1488
1494 1494 1494 1496 1498 1500 1500 1500 1503 1518 1520 1491 1486 1487 1490 1490 1491 1492 1496 1499 1499 1501 1503 1500 1495 1495 1494 1488 1490 1491 1497 1505 1512 1519 1528 1510 1518 1503 1491 1479 1473 1470 1474 1478 1481
1494 1494 1494 1495 1498 1500 1501 1502 1518 1522 1492 1491 1489 1486 1488 1492 1491 1492 1497 1501 1508 1517 1515 1502 1494 1485 1484 1491 1487 1495 1513 1539 1536 1547 1541 1518 1516 1494 1475 1470 1469 1467 1469 1472 1476
1495 1494 1494 1496 1497 1499 1501 1506 1518 1501 1498 1482 1483 1489 1495 1493 1493 1492 1498 1506 1500 1504 1519 1518 1518 1486 1481 1484 1489 1494 1504 1536 1544 1550 1530 1518 1520 1487 1468 1466 1466 1464 1464 1466 1469
1496 1496 1496 1497 1498 1500 1503 1521 1512 1502 1489 1486 1485 1496 1497 1491 1492 1493 1499 1500 1495 1497 1514 1522 1513 1480 1477 1473 1478 1492 1503 1496 1522 1531 1535 1522 1499 1473 1473 1472 1466 1463 1463 1463 1464
1496 1496 1497 1499 1500 1502 1506 1516 1504 1493 1488 1485 1496 1492 1501 1499 1496 1498 1498 1487 1488 1485 1486 1497 1514 1479 1472 1471 1473 1479 1484 1511 1524 1529 1528 1521 1513 1511 1486 1481 1467 1466 1464 1463 1464
1497 1497 1499 1500 1503 1504 1514 1511 1497 1486 1486 1488 1493 1495 1497 1499 1497 1497 1493 1485 1485 1480 1481 1491 1501 1490 1475 1482 1486 1489 1497 1505 1512 1525 1535 1538 1520 1493 1491 1480 1471 1470 1468 1462 1463
1497 1500 1502 1504 1506 1509 1510 1502 1494 1488 1485 1484 1486 1490 1493 1493 1494 1493 1494 1488 1485 1482 1488 1486 1499 1506 1490 1477 1476 1477 1486 1499 1522 1519 1528 1532 1520 1484 1482 1477 1472 1472 1470 1471 1468
1499 1502 1504 1506 1515 1512 1503 1498 1495 1492 1490 1487 1493 1492 1491 1496 1499 1494 1495 1488 1488 1483 1486 1483 1499 1514 1501 1493 1481 1484 1484 1495 1505 1514 1521 1529 1515 1479 1478 1474 1469 1470 1469 1470 1471
1501 1505 1506 1507 1508 1509 1509 1503 1499 1494 1494 1494 1496 1493 1495 1502 1500 1500 1497 1488 1487 1486 1482 1480 1496 1499 1515 1500 1489 1491 1487 1490 1500 1519 1516 1517 1498 1482 1475 1473 1464 1463 1465 1468 1469
1504 1511 1513 1514 1509 1510 1509 1506 1503 1502 1496 1496 1499 1500 1502 1507 1505 1503 1499 1495 1487 1486 1483 1487 1499 1493 1488 1488 1484 1483 1484 1488 1494 1494 1500 1493 1498 1481 1473 1469 1464 1462 1463 1464 1466
1510 1513 1513 1512 1511 1510 1510 1512 1508 1503 1501 1503 1503 1500 1500 1504 1503 1505 1500 1499 1498 1488 1490 1491 1499 1497 1495 1485 1486 1483 1481 1482 1484 1488 1486 1486 1491 1472 1466 1465 1462 1459 1462 1460 1461
1516 1516 1516 1515 1513 1513 1515 1513 1509 1506 1503 1502 1502 1501 1501 1498 1496 1494 1492 1490 1489 1491 1494 1496 1499 1504 1509 1493 1487 1497 1484 1478 1479 1484 1484 1494 1484 1476 1473 1470 1465 1462 1462 1463 1461